Year,Month,Day,Hour,Minute,Value (Times are PST for temperature in C)
2022,04,20,00,00,2.20
2022,04,20,00,01,2.20
2022,04,20,00,02,2.20
2022,04,20,00,03,2.10
2022,04,20,00,04,2.10
2022,04,20,00,05,2.10
2022,04,20,00,06,2.10
2022,04,20,00,07,2.10
2022,04,20,00,08,2.00
2022,04,20,00,09,2.00
2022,04,20,00,10,2.00
2022,04,20,00,11,2.00
2022,04,20,00,12,2.00
2022,04,20,00,13,2.00
2022,04,20,00,14,2.00
2022,04,20,00,15,2.00
2022,04,20,00,16,2.00
2022,04,20,00,17,2.00
2022,04,20,00,18,1.90
2022,04,20,00,19,1.90
2022,04,20,00,20,1.90
2022,04,20,00,21,1.90
2022,04,20,00,22,1.90
2022,04,20,00,23,1.90
2022,04,20,00,24,1.90
2022,04,20,00,25,1.90
2022,04,20,00,26,1.90
2022,04,20,00,27,1.80
2022,04,20,00,28,1.80
2022,04,20,00,29,1.80
2022,04,20,00,30,1.80
2022,04,20,00,31,1.80
2022,04,20,00,32,1.80
2022,04,20,00,33,1.80
2022,04,20,00,34,1.80
2022,04,20,00,35,1.80
2022,04,20,00,36,1.80
2022,04,20,00,37,1.80
2022,04,20,00,38,1.80
2022,04,20,00,39,1.80
2022,04,20,00,40,1.80
2022,04,20,00,41,1.80
2022,04,20,00,42,1.80
2022,04,20,00,43,1.70
2022,04,20,00,44,1.70
2022,04,20,00,45,1.70
2022,04,20,00,46,1.70
2022,04,20,00,47,1.70
2022,04,20,00,48,1.80
2022,04,20,00,49,1.80
2022,04,20,00,50,1.80
2022,04,20,00,51,1.80
2022,04,20,00,52,1.80
2022,04,20,00,53,1.80
2022,04,20,00,54,1.80
2022,04,20,00,55,1.80
2022,04,20,00,56,1.80
2022,04,20,00,57,1.80
2022,04,20,00,58,1.80
2022,04,20,00,59,1.80
2022,04,20,01,00,1.80
2022,04,20,01,01,1.80
2022,04,20,01,02,1.80
2022,04,20,01,03,1.80
2022,04,20,01,04,1.80
2022,04,20,01,05,1.80
2022,04,20,01,06,1.80
2022,04,20,01,07,1.80
2022,04,20,01,08,1.80
2022,04,20,01,09,1.80
2022,04,20,01,10,1.80
2022,04,20,01,11,1.80
2022,04,20,01,12,1.80
2022,04,20,01,13,1.80
2022,04,20,01,14,1.80
2022,04,20,01,15,1.80
2022,04,20,01,16,1.80
2022,04,20,01,17,1.80
2022,04,20,01,18,1.70
2022,04,20,01,19,1.70
2022,04,20,01,20,1.70
2022,04,20,01,21,1.70
2022,04,20,01,22,1.70
2022,04,20,01,23,1.70
2022,04,20,01,24,1.70
2022,04,20,01,25,1.60
2022,04,20,01,26,1.60
2022,04,20,01,27,1.60
2022,04,20,01,28,1.60
2022,04,20,01,29,1.60
2022,04,20,01,30,1.60
2022,04,20,01,31,1.50
2022,04,20,01,32,1.50
2022,04,20,01,33,1.50
2022,04,20,01,34,1.50
2022,04,20,01,35,1.50
2022,04,20,01,36,1.50
2022,04,20,01,37,1.40
2022,04,20,01,38,1.40
2022,04,20,01,39,1.40
2022,04,20,01,40,1.40
2022,04,20,01,41,1.40
2022,04,20,01,42,1.40
2022,04,20,01,43,1.40
2022,04,20,01,44,1.40
2022,04,20,01,45,1.40
2022,04,20,01,46,1.40
2022,04,20,01,47,1.40
2022,04,20,01,48,1.30
2022,04,20,01,49,1.30
2022,04,20,01,50,1.30
2022,04,20,01,51,1.30
2022,04,20,01,52,1.30
2022,04,20,01,53,1.30
2022,04,20,01,54,1.30
2022,04,20,01,55,1.30
2022,04,20,01,56,1.30
2022,04,20,01,57,1.20
2022,04,20,01,58,1.20
2022,04,20,01,59,1.20
2022,04,20,02,00,1.20
2022,04,20,02,01,1.20
2022,04,20,02,02,1.20
2022,04,20,02,03,1.20
2022,04,20,02,04,1.20
2022,04,20,02,05,1.20
2022,04,20,02,06,1.20
2022,04,20,02,07,1.20
2022,04,20,02,08,1.20
2022,04,20,02,09,1.20
2022,04,20,02,10,1.20
2022,04,20,02,11,1.20
2022,04,20,02,12,1.20
2022,04,20,02,13,1.20
2022,04,20,02,14,1.20
2022,04,20,02,15,1.20
2022,04,20,02,16,1.10
2022,04,20,02,17,1.10
2022,04,20,02,18,1.10
2022,04,20,02,19,1.10
2022,04,20,02,20,1.10
2022,04,20,02,21,1.10
2022,04,20,02,22,1.10
2022,04,20,02,23,1.10
2022,04,20,02,24,1.10
2022,04,20,02,25,1.10
2022,04,20,02,26,1.20
2022,04,20,02,27,1.20
2022,04,20,02,28,1.20
2022,04,20,02,29,1.20
2022,04,20,02,30,1.20
2022,04,20,02,31,1.20
2022,04,20,02,32,1.20
2022,04,20,02,33,1.20
2022,04,20,02,34,1.20
2022,04,20,02,35,1.10
2022,04,20,02,36,1.20
2022,04,20,02,37,1.20
2022,04,20,02,38,1.10
2022,04,20,02,39,1.10
2022,04,20,02,40,1.20
2022,04,20,02,41,1.20
2022,04,20,02,42,1.20
2022,04,20,02,43,1.20
2022,04,20,02,44,1.20
2022,04,20,02,45,1.20
2022,04,20,02,46,1.20
2022,04,20,02,47,1.20
2022,04,20,02,48,1.20
2022,04,20,02,49,1.20
2022,04,20,02,50,1.20
2022,04,20,02,51,1.20
2022,04,20,02,52,1.20
2022,04,20,02,53,1.20
2022,04,20,02,54,1.20
2022,04,20,02,55,1.20
2022,04,20,02,56,1.20
2022,04,20,02,57,1.20
2022,04,20,02,58,1.20
2022,04,20,02,59,1.20
2022,04,20,03,00,1.20
2022,04,20,03,01,1.20
2022,04,20,03,02,1.20
2022,04,20,03,03,1.20
2022,04,20,03,04,1.20
2022,04,20,03,05,1.20
2022,04,20,03,06,1.20
2022,04,20,03,07,1.20
2022,04,20,03,08,1.20
2022,04,20,03,09,1.20
2022,04,20,03,10,1.20
2022,04,20,03,11,1.20
2022,04,20,03,12,1.20
2022,04,20,03,13,1.20
2022,04,20,03,14,1.20
2022,04,20,03,15,1.20
2022,04,20,03,16,1.20
2022,04,20,03,17,1.20
2022,04,20,03,18,1.30
2022,04,20,03,19,1.30
2022,04,20,03,20,1.30
2022,04,20,03,21,1.30
2022,04,20,03,22,1.30
2022,04,20,03,23,1.30
2022,04,20,03,24,1.30
2022,04,20,03,25,1.30
2022,04,20,03,26,1.30
2022,04,20,03,27,1.30
2022,04,20,03,28,1.30
2022,04,20,03,29,1.30
2022,04,20,03,30,1.30
2022,04,20,03,31,1.30
2022,04,20,03,32,1.30
2022,04,20,03,33,1.30
2022,04,20,03,34,1.30
2022,04,20,03,35,1.30
2022,04,20,03,36,1.30
2022,04,20,03,37,1.30
2022,04,20,03,38,1.30
2022,04,20,03,39,1.30
2022,04,20,03,40,1.30
2022,04,20,03,41,1.20
2022,04,20,03,42,1.20
2022,04,20,03,43,1.20
2022,04,20,03,44,1.20
2022,04,20,03,45,1.20
2022,04,20,03,46,1.20
2022,04,20,03,47,1.20
2022,04,20,03,48,1.20
2022,04,20,03,49,1.30
2022,04,20,03,50,1.30
2022,04,20,03,51,1.30
2022,04,20,03,52,1.30
2022,04,20,03,53,1.30
2022,04,20,03,54,1.30
2022,04,20,03,55,1.30
2022,04,20,03,56,1.30
2022,04,20,03,57,1.30
2022,04,20,03,58,1.30
2022,04,20,03,59,1.30
2022,04,20,04,00,1.30
2022,04,20,04,01,1.20
2022,04,20,04,02,1.20
2022,04,20,04,03,1.20
2022,04,20,04,04,1.20
2022,04,20,04,05,1.20
2022,04,20,04,06,1.20
2022,04,20,04,07,1.20
2022,04,20,04,08,1.20
2022,04,20,04,09,1.20
2022,04,20,04,10,1.20
2022,04,20,04,11,1.20
2022,04,20,04,12,1.20
2022,04,20,04,13,1.20
2022,04,20,04,14,1.20
2022,04,20,04,15,1.20
2022,04,20,04,16,1.20
2022,04,20,04,17,1.20
2022,04,20,04,18,1.20
2022,04,20,04,19,1.20
2022,04,20,04,20,1.20
2022,04,20,04,21,1.20
2022,04,20,04,22,1.20
2022,04,20,04,23,1.20
2022,04,20,04,24,1.20
2022,04,20,04,25,1.20
2022,04,20,04,26,1.20
2022,04,20,04,27,1.20
2022,04,20,04,28,1.20
2022,04,20,04,29,1.20
2022,04,20,04,30,1.20
2022,04,20,04,31,1.20
2022,04,20,04,32,1.20
2022,04,20,04,33,1.20
2022,04,20,04,34,1.20
2022,04,20,04,35,1.30
2022,04,20,04,36,1.30
2022,04,20,04,37,1.30
2022,04,20,04,38,1.30
2022,04,20,04,39,1.30
2022,04,20,04,40,1.30
2022,04,20,04,41,1.20
2022,04,20,04,42,1.20
2022,04,20,04,43,1.20
2022,04,20,04,44,1.20
2022,04,20,04,45,1.20
2022,04,20,04,46,1.20
2022,04,20,04,47,1.20
2022,04,20,04,48,1.20
2022,04,20,04,49,1.20
2022,04,20,04,50,1.10
2022,04,20,04,51,1.10
2022,04,20,04,52,1.10
2022,04,20,04,53,1.10
2022,04,20,04,54,1.10
2022,04,20,04,55,1.10
2022,04,20,04,56,1.10
2022,04,20,04,57,1.10
2022,04,20,04,58,1.00
2022,04,20,04,59,1.10
2022,04,20,05,00,1.00
2022,04,20,05,01,1.00
2022,04,20,05,02,1.00
2022,04,20,05,03,1.00
2022,04,20,05,04,1.00
2022,04,20,05,05,1.00
2022,04,20,05,06,1.00
2022,04,20,05,07,1.00
2022,04,20,05,08,1.00
2022,04,20,05,09,1.00
2022,04,20,05,10,1.00
2022,04,20,05,11,1.00
2022,04,20,05,12,1.00
2022,04,20,05,13,1.00
2022,04,20,05,14,1.00
2022,04,20,05,15,1.00
2022,04,20,05,16,1.00
2022,04,20,05,17,1.00
2022,04,20,05,18,1.00
2022,04,20,05,19,1.00
2022,04,20,05,20,1.00
2022,04,20,05,21,1.10
2022,04,20,05,22,1.10
2022,04,20,05,23,1.10
2022,04,20,05,24,1.10
2022,04,20,05,25,1.10
2022,04,20,05,26,1.10
2022,04,20,05,27,1.10
2022,04,20,05,28,1.10
2022,04,20,05,29,1.10
2022,04,20,05,30,1.10
2022,04,20,05,31,1.10
2022,04,20,05,32,1.10
2022,04,20,05,33,1.10
2022,04,20,05,34,1.10
2022,04,20,05,35,1.10
2022,04,20,05,36,1.10
2022,04,20,05,37,1.10
2022,04,20,05,38,1.10
2022,04,20,05,39,1.10
2022,04,20,05,40,1.10
2022,04,20,05,41,1.10
2022,04,20,05,42,1.10
2022,04,20,05,43,1.10
2022,04,20,05,44,1.10
2022,04,20,05,45,1.10
2022,04,20,05,46,1.10
2022,04,20,05,47,1.10
2022,04,20,05,48,1.10
2022,04,20,05,49,1.10
2022,04,20,05,50,1.00
2022,04,20,05,51,1.00
2022,04,20,05,52,1.10
2022,04,20,05,53,1.10
2022,04,20,05,54,1.10
2022,04,20,05,55,1.10
2022,04,20,05,56,1.10
2022,04,20,05,57,1.10
2022,04,20,05,58,1.10
2022,04,20,05,59,1.10
2022,04,20,06,00,1.20
2022,04,20,06,01,1.20
2022,04,20,06,02,1.20
2022,04,20,06,03,1.20
2022,04,20,06,04,1.20
2022,04,20,06,05,1.30
2022,04,20,06,06,1.30
2022,04,20,06,07,1.30
2022,04,20,06,08,1.30
2022,04,20,06,09,1.30
2022,04,20,06,10,1.30
2022,04,20,06,11,1.40
2022,04,20,06,12,1.40
2022,04,20,06,13,1.50
2022,04,20,06,14,1.50
2022,04,20,06,15,1.60
2022,04,20,06,16,1.70
2022,04,20,06,17,1.70
2022,04,20,06,18,1.70
2022,04,20,06,19,1.70
2022,04,20,06,20,1.70
2022,04,20,06,21,1.70
2022,04,20,06,22,1.70
2022,04,20,06,23,1.70
2022,04,20,06,24,1.70
2022,04,20,06,25,1.70
2022,04,20,06,26,1.70
2022,04,20,06,27,1.70
2022,04,20,06,28,1.80
2022,04,20,06,29,1.80
2022,04,20,06,30,1.80
2022,04,20,06,31,1.80
2022,04,20,06,32,1.80
2022,04,20,06,33,1.80
2022,04,20,06,34,1.80
2022,04,20,06,35,1.80
2022,04,20,06,36,1.80
2022,04,20,06,37,1.80
2022,04,20,06,38,1.80
2022,04,20,06,39,1.90
2022,04,20,06,40,1.90
2022,04,20,06,41,1.90
2022,04,20,06,42,1.90
2022,04,20,06,43,1.90
2022,04,20,06,44,1.90
2022,04,20,06,45,1.90
2022,04,20,06,46,1.90
2022,04,20,06,47,1.90
2022,04,20,06,48,1.90
2022,04,20,06,49,1.90
2022,04,20,06,50,1.90
2022,04,20,06,51,1.90
2022,04,20,06,52,1.90
2022,04,20,06,53,1.90
2022,04,20,06,54,1.90
2022,04,20,06,55,1.90
2022,04,20,06,56,1.90
